Regional Weather Roundup
Issued by NWS

Home | Current Version | Previous Version | Text Only | Print | Product List | Glossary Off
Versions: 1 2 3 4 5 6 7 8 9 10 11 12 13 14 15 16 17 18 19 20 21 22 23 24 25 26 27 28 29 30 31 32 33 34 35 36 37 38 39 40 41 42 43 44 45 46 47 48 49 50

383
ASUS43 KMKX 221621
RWRWI

WISCONSIN REGIONAL WEATHER ROUNDUP
NATIONAL WEATHER SERVICE MILWAUKEE/SULLIVAN WI
1100 AM CDT FRI SEP 22 2017

NOTE: "FAIR" INDICATES FEW OR NO CLOUDS BELOW 12,000 FEET WITH NO
SIGNIFICANT WEATHER AND/OR OBSTRUCTIONS TO VISIBILITY.

WIZ001-002-006>008-014>016-023>028-221700-
NORTHWEST WISCONSIN

CITY           SKY/WX    TMP DP  RH WIND       PRES   REMARKS
SUPERIOR ARPT  CLOUDY    65  65 100 W3        29.81F
ASHLAND        LGT RAIN  65  63  93 SE9G24    29.93R
HAYWARD        CLOUDY    66  63  90 E10G22    29.92F
SIREN          CLOUDY    70  69  96 SE10      29.89S
CUMBERLAND     RAIN      72  68  88 NE3       29.93S
RICE LAKE      CLOUDY    72  71  95 NW3       29.95R FOG
CHETEK           N/A     75  71  87 NE5       29.92S
LADYSMITH      CLOUDY    74  70  89 CALM      29.97R THUNDER
EAU CLAIRE     CLOUDY    84  71  65 S12       29.90S HX  89
MENOMONIE      PTSUNNY   83  72  69 S5        29.90R HX  87
NEW RICHMOND   CLOUDY    80  69  68 S3        29.89F HX  83
OSCEOLA        CLOUDY    80  70  71 S7        29.91S HX  83
$$

WIZ003>005-009-010-017-018-221700-
NORTH CENTRAL WISCONSIN

CITY           SKY/WX    TMP DP  RH WIND       PRES   REMARKS
MANITOWISH WTR CLOUDY    70  70 100 NW10      30.04R
ARBOR VITAE    CLOUDY    73  69  87 W3        30.01R
WOODRUFF       CLOUDY    73  69  87 W3        30.01R
RHINELANDER    CLOUDY    77  70  79 SW7       29.99S
EAGLE RIVER    CLOUDY    77  67  71 SW6       30.00R
LAND O LAKES   CLOUDY    76  68  77 CALM      30.02R
PHILLIPS       CLOUDY    72  70  94 NW9       30.00R
TOMAHAWK       CLOUDY    75  68  78 CALM      30.00R
MEDFORD        MOSUNNY   79  70  72 S13       29.98S HX  82
MERRILL        CLOUDY    83  71  69 S12G17    29.98S HX  87
$$

WIZ029-030-035-036-043>047-221700-
CENTRAL WISCONSIN

CITY           SKY/WX    TMP DP  RH WIND       PRES   REMARKS
WAUSAU         CLOUDY    82  69  64 S12       29.98R HX  85
MOSINEE        PTSUNNY   82  70  65 S13       30.00S HX  86
MARSHFIELD     SUNNY     83  68  60 S10       29.98R HX  86
STEVENS POINT  SUNNY     81  71  70 S12       30.00S HX  85
WAUPACA        SUNNY     85  71  63 S10       30.00F HX  90
WAUTOMA        SUNNY     83  71  67 S9        30.00F HX  87
WISC RAPIDS    MOSUNNY   84  70  62 SW15G23   29.99F HX  88
CAMP DOUGLAS   MOSUNNY   84  72  65 S10       29.98F HX  89
$$

WIZ011>013-019>022-031-037>040-048>050-221700-
NORTHEAST WISCONSIN

CITY           SKY/WX    TMP DP  RH WIND       PRES   REMARKS
ANTIGO         CLOUDY    79  70  74 SW12G17   30.02S HX  82
SHAWANO        SUNNY     85  71  62 SW6       29.99F HX  91
OCONTO         SUNNY     82  71  69 SE7       29.99F HX  87
STURGEON BAY   SUNNY     85  72  65 S8        30.01  HX  91
GREEN BAY      SUNNY     84  71  65 S10       30.01F HX  89
MANITOWOC      SUNNY     85  71  63 S7        30.03F HX  90
APPLETON       MOSUNNY   84  64  51 S13       30.01F HX  86
CLINTONVILLE   SUNNY     84  68  58 SW9       30.00S HX  87
OSHKOSH        SUNNY     83  71  67 S9        30.02F HX  87
$$

WIZ032>034-041-042-053>061-221700-
SOUTHWEST WISCONSIN

CITY           SKY/WX    TMP DP  RH WIND       PRES   REMARKS
LA CROSSE      SUNNY     86  70  58 S17       29.93F HX  90
SPARTA         SUNNY     84  70  62 S13       29.96F HX  89
VIROQUA        SUNNY     83  71  66 S12       30.00F HX  87
BOSCOBEL       SUNNY     88  69  53 S12       29.99F HX  92
PRAIRIE DU CHI SUNNY     84  67  56 S5        29.99S HX  87
PLATTEVILLE    SUNNY     85  72  66 S12       30.05R HX  90
$$

WIZ056-057-062-063-064-067-068-221700-
SOUTH CENTRAL WISCONSIN

CITY           SKY/WX    TMP DP  RH WIND       PRES   REMARKS
REEDSBURG      SUNNY     84  71  65 S9        30.01F HX  88
BARABOO/DELLS  SUNNY     83  68  60 SW10      30.02F HX  85
LONE ROCK      SUNNY     85  72  65 S7        30.01S HX  91
MINERAL POINT  SUNNY     86  72  62 S10       30.05R HX  92
MADISON        MOSUNNY   83  70  64 S8        30.04S HX  87
MIDDLETON      SUNNY     84  71  63 S7        30.05S HX  89
WATERTOWN      SUNNY     84  71  63 S7        30.05S HX  89
MONROE         SUNNY     82  68  61 S7        30.07R HX  85
JANESVILLE     MOSUNNY   88  66  48 SW12      30.05S HX  90
$$

WIZ051-052-058>065-066-070>072-221700-
SOUTHEAST WISCONSIN

CITY           SKY/WX    TMP DP  RH WIND       PRES   REMARKS
MILWAUKEE      MOSUNNY   89  69  51 SW8       30.06R HX  93
WAUKESHA       SUNNY     84  68  58 S5        30.08S HX  87
MILWAUKEE/TIMM SUNNY     86  64  48 SW9       30.07R HX  87
RACINE         SUNNY     89  70  53 S8        30.08S HX  94
BURLINGTON     SUNNY     89  70  53 SW8       30.06S HX  93
KENOSHA        SUNNY     89  69  51 SW12      30.07S HX  93
FOND DU LAC    SUNNY     84  69  60 S7        30.03F HX  88
SHEBOYGAN      SUNNY     85  72  65 SW7       30.04F HX  91
WEST BEND        N/A     86  68  54 SW10      30.05F HX  89
JUNEAU         SUNNY     82  70  67 S7        30.06F HX  86
$$

LSZ147-162-221700-
LAKE SUPERIOR

STATION/POSITION TIME  TEMP    WIND        PRES    WAVE
                       AIR SEA DIR/SP/G            HT/PER
                 (UTC) (F)     (DEG/KT/KT) (MB)    (FT/S)
W MID LAKE BUOY  1550   64 54  280/ 14/ 17 1012.1F   1/ 3
DEVILS ISLAND    1600   69     160/ 18/ 23 1010.2F
PORT WING        1442   62     200/ 17/ 25 1016.9
SAXON HARBOR     1530   67     200/  8/ 14 1016.3R
$$

LMZ867-665-643>646-221700-
LAKE MICHIGAN

STATION/POSITION TIME  TEMP    WIND        PRES    WAVE
                       AIR SEA DIR/SP/G            HT/PER
                 (UTC) (F)     (DEG/KT/KT) (MB)    (FT/S)
S GREEN BAY BUOY 1600   72 68  200/  8/ 10 1015.6
N MID LAKE BUOY  1550   69 66  180/ 12/ 14 1016.9R   2/ 4
NORTHPORT PIER   1540   72     140/  9/ 10 1015.9F
KEWAUNEE LAKESHO 1600   64     170/ 10/ 11 1015.7
SHEBOYGAN LAKESH 1600   70     150/ 14/ 15 1016.8F
PORT WASHINGTON  1530   76     130/  3/  5 1018.3S
ATWATER BUOY     1509   70 66  150/ 10/ 10 1017.8R
MILWAUKEE LAKESH 1600   71     130/ 11/ 11   N/A
S MID LAKE BUOY  1550   72 69  180/  8/ 10 1018.6R   1
KENOSHA   LAKESH 1600   74     170/ 10/ 12 1017.6
$$

TC  - TEMPERATURE IN CELSIUS
VSB - VISIBILITY IN STATUTE MILES
WCI - WIND CHILL INDEX
HX  - HEAT INDEX





USA.gov is the U.S. government's official web portal to all federal, state and local government web resources and services.